| time (UTC) | temp F | wind direction | speed knots | gust knots | rain 1hr in | rain 24hr in | rain mn in | humidity % | barometer mb |
| 20260505052004 | 71 | 94 | 1.7 | 4.3 | 0.00 | 0.00 | 0.00 | 80 | 1014.7 |
| 20260505051504 | 71 | 69 | 1.7 | 4.3 | 0.00 | 0.00 | 0.00 | 79 | 1014.5 |
| 20260505051004 | 71 | 59 | 0.9 | 4.3 | 0.00 | 0.00 | 0.00 | 79 | 1014.8 |
| 20260505050503 | 71 | 94 | 0.9 | 4.3 | 0.00 | 0.00 | 0.00 | 79 | 1014.9 |
| 20260505041503 | 72 | 52 | 1.7 | 2.6 | 0.00 | 0.00 | 0.00 | 77 | 1015.3 |
| 20260505041004 | 72 | 72 | 1.7 | 2.6 | 0.00 | 0.00 | 0.00 | 76 | 1015.2 |
| 20260505040005 | 73 | 35 | 0.0 | 2.6 | 0.00 | 0.00 | 0.00 | 76 | 1015.2 |
| 20260505035504 | 73 | 53 | 1.7 | 2.6 | 0.00 | 0.00 | 0.00 | 75 | 1015.1 |
| 20260505035004 | 73 | 51 | 1.7 | 4.3 | 0.00 | 0.00 | 0.00 | 75 | 1015.0 |
| 20260505034504 | 73 | 75 | 1.7 | 4.3 | 0.00 | 0.00 | 0.00 | 74 | 1015.0 |
| 20260505034003 | 73 | 100 | 3.5 | 5.2 | 0.00 | 0.00 | 0.00 | 74 | 1015.0 |
| 20260505033504 | 73 | 83 | 2.6 | 7.0 | 0.00 | 0.00 | 0.00 | 74 | 1015.1 |
| 20260505033003 | 73 | 113 | 4.3 | 10.4 | 0.00 | 0.00 | 0.00 | 73 | 1015.0 |
| 20260505032503 | 73 | 85 | 2.6 | 4.3 | 0.00 | 0.00 | 0.00 | 75 | 1015.1 |
| 20260505032004 | 74 | 93 | 2.6 | 4.3 | 0.00 | 0.00 | 0.00 | 74 | 1015.0 |
| 20260505031504 | 74 | 74 | 1.7 | 4.3 | 0.00 | 0.00 | 0.00 | 74 | 1015.1 |
| 20260505031004 | 74 | 96 | 1.7 | 5.2 | 0.00 | 0.00 | 0.00 | 73 | 1015.0 |
| 20260505030503 | 74 | 114 | 1.7 | 5.2 | 0.00 | 0.00 | 0.00 | 74 | 1014.9 |
| 20260505030004 | 74 | 107 | 2.6 | 7.0 | 0.00 | 0.00 | 0.00 | 73 | 1014.9 |
| 20260505024504 | 74 | 78 | 1.7 | 2.6 | 0.00 | 0.00 | 0.00 | 73 | 1015.2 |
| 20260505024004 | 74 | 70 | 2.6 | 2.6 | 0.00 | 0.00 | 0.00 | 72 | 1015.0 |
| 20260505023504 | 74 | 94 | 1.7 | 4.3 | 0.00 | 0.00 | 0.00 | 72 | 1015.1 |
| 20260505023004 | 74 | 85 | 0.9 | 4.3 | 0.00 | 0.00 | 0.00 | 72 | 1015.1 |
| 20260505022004 | 74 | 88 | 0.9 | 4.3 | 0.00 | 0.00 | 0.00 | 70 | 1014.8 |
| 20260505021503 | 74 | 64 | 0.9 | 1.7 | 0.00 | 0.00 | 0.00 | 70 | 1014.8 |
| 20260505021003 | 74 | 54 | 0.9 | 2.6 | 0.00 | 0.00 | 0.00 | 69 | 1014.8 |
| 20260505020504 | 74 | 61 | 1.7 | 7.8 | 0.00 | 0.00 | 0.00 | 69 | 1014.7 |
| 20260505020004 | 74 | 354 | 1.7 | 7.8 | 0.00 | 0.00 | 0.00 | 69 | 1014.6 |
| 20260505015504 | 74 | 16 | 0.9 | 6.1 | 0.00 | 0.00 | 0.00 | 68 | 1014.6 |
| 20260505015004 | 74 | 9 | 2.6 | 6.1 | 0.00 | 0.00 | 0.00 | 68 | 1014.5 |
| 20260505014504 | 75 | 82 | 1.7 | 4.3 | 0.00 | 0.00 | 0.00 | 68 | 1014.6 |
| 20260505014004 | 75 | 91 | 0.9 | 2.6 | 0.00 | 0.00 | 0.00 | 66 | 1014.6 |
| 20260505013504 | 75 | 79 | 1.7 | 4.3 | 0.00 | 0.00 | 0.00 | 68 | 1014.5 |
| 20260505013004 | 75 | 358 | 1.7 | 6.1 | 0.00 | 0.00 | 0.00 | 67 | 1014.3 |
| 20260505012504 | 75 | 21 | 2.6 | 8.7 | 0.00 | 0.00 | 0.00 | 67 | 1014.2 |
| 20260505012004 | 75 | 11 | 2.6 | 7.8 | 0.00 | 0.00 | 0.00 | 66 | 1014.3 |
| 20260505011504 | 75 | 341 | 2.6 | 7.0 | 0.00 | 0.00 | 0.00 | 65 | 1014.1 |
| 20260505011004 | 75 | 8 | 3.5 | 7.8 | 0.00 | 0.00 | 0.00 | 64 | 1014.1 |
| 20260505010504 | 75 | 15 | 2.6 | 7.8 | 0.00 | 0.00 | 0.00 | 64 | 1014.1 |
| 20260505010004 | 75 | 350 | 3.5 | 6.1 | 0.00 | 0.00 | 0.00 | 64 | 1014.1 |
| 20260505005504 | 75 | 335 | 3.5 | 6.1 | 0.00 | 0.00 | 0.00 | 63 | 1014.1 |
| 20260505004504 | 76 | 343 | 2.6 | 6.1 | 0.00 | 0.00 | 0.00 | 63 | 1013.9 |
| 20260505003504 | 76 | 319 | 2.6 | 6.1 | 0.00 | 0.00 | 0.00 | 63 | 1013.9 |
| 20260505003004 | 76 | 333 | 4.3 | 7.8 | 0.00 | 0.00 | 0.00 | 63 | 1013.7 |
| 20260505002504 | 76 | 318 | 2.6 | 7.0 | 0.00 | 0.00 | 0.00 | 62 | 1013.7 |
| 20260505002003 | 76 | 13 | 2.6 | 7.0 | 0.00 | 0.00 | 0.00 | 62 | 1013.7 |
| 20260505001504 | 76 | 350 | 2.6 | 7.0 | 0.00 | 0.00 | 0.00 | 62 | 1013.8 |
| 20260505000004 | 76 | 321 | 3.5 | 7.8 | 0.00 | 0.00 | 0.00 | 61 | 1013.6 |
| 20260504235504 | 77 | 324 | 4.3 | 8.7 | 0.00 | 0.00 | 0.00 | 61 | 1013.4 |
| 20260504235004 | 77 | 327 | 4.3 | 7.0 | 0.00 | 0.00 | 0.00 | 60 | 1013.4 |
| 20260504234504 | 77 | 337 | 4.3 | 8.7 | 0.00 | 0.00 | 0.00 | 60 | 1013.1 |
| 20260504234004 | 77 | 312 | 4.3 | 7.0 | 0.00 | 0.00 | 0.00 | 60 | 1013.0 |
| 20260504233004 | 77 | 335 | 4.3 | 7.8 | 0.00 | 0.00 | 0.00 | 59 | 1013.0 |
| 20260504232504 | 77 | 304 | 4.3 | 7.0 | 0.00 | 0.00 | 0.00 | 58 | 1013.0 |
| 20260504232003 | 78 | 301 | 4.3 | 7.8 | 0.00 | 0.00 | 0.00 | 58 | 1013.0 |
| 20260504231504 | 78 | 312 | 5.2 | 7.8 | 0.00 | 0.00 | 0.00 | 58 | 1013.1 |
| 20260504231004 | 78 | 357 | 3.5 | 7.0 | 0.00 | 0.00 | 0.00 | 58 | 1013.2 |
| 20260504230504 | 78 | 305 | 3.5 | 7.8 | 0.00 | 0.00 | 0.00 | 58 | 1013.2 |
| 20260504230005 | 79 | 325 | 2.6 | 7.8 | 0.00 | 0.00 | 0.00 | 57 | 1013.2 |
| 20260504225503 | 79 | 331 | 4.3 | 7.8 | 0.00 | 0.00 | 0.00 | 56 | 1013.0 |
| 20260504225004 | 79 | 304 | 5.2 | 8.7 | 0.00 | 0.00 | 0.00 | 56 | 1013.0 |
| 20260504224504 | 80 | 331 | 5.2 | 8.7 | 0.00 | 0.00 | 0.00 | 55 | 1012.9 |
| 20260504224004 | 79 | 327 | 5.2 | 8.7 | 0.00 | 0.00 | 0.00 | 56 | 1012.9 |
| 20260504223504 | 79 | 324 | 4.3 | 8.7 | 0.00 | 0.00 | 0.00 | 56 | 1012.9 |
| 20260504223004 | 80 | 339 | 6.1 | 10.4 | 0.00 | 0.00 | 0.00 | 56 | 1012.9 |
| 20260504222504 | 80 | 314 | 5.2 | 7.8 | 0.00 | 0.00 | 0.00 | 55 | 1012.9 |
| 20260504222004 | 80 | 307 | 5.2 | 8.7 | 0.00 | 0.00 | 0.00 | 55 | 1012.9 |
| 20260504221503 | 80 | 305 | 7.8 | 13.9 | 0.00 | 0.00 | 0.00 | 55 | 1013.0 |
| 20260504221004 | 81 | 311 | 6.1 | 12.2 | 0.00 | 0.00 | 0.00 | 54 | 1013.3 |
| 20260504220504 | 81 | 295 | 4.3 | 10.4 | 0.00 | 0.00 | 0.00 | 53 | 1013.0 |
| 20260504220004 | 81 | 326 | 6.1 | 12.2 | 0.00 | 0.00 | 0.00 | 52 | 1013.0 |
| 20260504215504 | 81 | 310 | 7.8 | 13.0 | 0.00 | 0.00 | 0.00 | 53 | 1013.1 |
| 20260504215004 | 82 | 298 | 7.0 | 11.3 | 0.00 | 0.00 | 0.00 | 52 | 1012.7 |
| 20260504213504 | 84 | 326 | 6.1 | 10.4 | 0.00 | 0.00 | 0.00 | 50 | 1012.9 |
| 20260504213004 | 86 | 229 | 4.3 | 7.0 | 0.00 | 0.00 | 0.00 | 47 | 1012.3 |
| 20260504212004 | 85 | 88 | 2.6 | 6.1 | 0.00 | 0.00 | 0.00 | 44 | 1012.5 |
| 20260504211504 | 85 | 143 | 4.3 | 8.7 | 0.00 | 0.00 | 0.00 | 44 | 1012.2 |
| 20260504211004 | 85 | 121 | 0.9 | 7.0 | 0.00 | 0.00 | 0.00 | 44 | 1012.2 |
| 20260504210503 | 84 | 163 | 1.7 | 4.3 | 0.00 | 0.00 | 0.00 | 44 | 1012.3 |
| 20260504210004 | 83 | 147 | 1.7 | 2.6 | 0.00 | 0.00 | 0.00 | 44 | 1012.8 |
| 20260504205503 | 84 | 4 | 1.7 | 6.1 | 0.00 | 0.00 | 0.00 | 45 | 1013.5 |
| 20260504205003 | 85 | 128 | 6.1 | 11.3 | 0.00 | 0.00 | 0.00 | 44 | 1013.1 |
| 20260504204503 | 85 | 102 | 2.6 | 7.0 | 0.00 | 0.00 | 0.00 | 46 | 1012.4 |
| 20260504204004 | 85 | 124 | 0.9 | 5.2 | 0.00 | 0.00 | 0.00 | 43 | 1013.2 |
| 20260504203004 | 85 | 103 | 2.6 | 5.2 | 0.00 | 0.00 | 0.00 | 44 | 1012.4 |
| 20260504202003 | 85 | 127 | 2.6 | 6.1 | 0.00 | 0.00 | 0.00 | 46 | 1012.6 |
| 20260504201504 | 85 | 116 | 2.6 | 7.8 | 0.00 | 0.00 | 0.00 | 45 | 1012.7 |
| 20260504201004 | 85 | 122 | 1.7 | 6.1 | 0.00 | 0.00 | 0.00 | 44 | 1012.4 |
| 20260504200504 | 85 | 98 | 2.6 | 6.1 | 0.00 | 0.00 | 0.00 | 44 | 1013.0 |
| 20260504200004 | 86 | 100 | 3.5 | 7.0 | 0.00 | 0.00 | 0.00 | 44 | 1012.9 |
| 20260504195504 | 85 | 57 | 0.9 | 5.2 | 0.00 | 0.00 | 0.00 | 44 | 1012.5 |
| 20260504195004 | 85 | 101 | 2.6 | 7.0 | 0.00 | 0.00 | 0.00 | 45 | 1012.7 |
| 20260504194504 | 85 | 81 | 2.6 | 5.2 | 0.00 | 0.00 | 0.00 | 44 | 1012.8 |
| 20260504194004 | 84 | 138 | 1.7 | 7.0 | 0.00 | 0.00 | 0.00 | 45 | 1013.3 |
| 20260504193504 | 85 | 104 | 2.6 | 7.0 | 0.00 | 0.00 | 0.00 | 45 | 1012.7 |
| 20260504192503 | 84 | 84 | 2.6 | 6.1 | 0.00 | 0.00 | 0.00 | 45 | 1013.4 |
| 20260504192003 | 83 | 108 | 1.7 | 7.0 | 0.00 | 0.00 | 0.00 | 47 | 1014.0 |
| 20260504191503 | 83 | 5 | 3.5 | 7.8 | 0.00 | 0.00 | 0.00 | 46 | 1013.4 |
| 20260504191004 | 85 | 356 | 3.5 | 7.0 | 0.00 | 0.00 | 0.00 | 45 | 1014.3 |
| 20260504190504 | 85 | 45 | 1.7 | 6.1 | 0.00 | 0.00 | 0.00 | 46 | 1013.7 |
| 20260504190004 | 84 | 47 | 1.7 | 7.8 | 0.00 | 0.00 | 0.00 | 44 | 1013.0 |
| 20260504185504 | 83 | 93 | 3.5 | 7.8 | 0.00 | 0.00 | 0.00 | 48 | 1013.3 |
| 20260504185004 | 84 | 134 | 5.2 | 7.8 | 0.00 | 0.00 | 0.00 | 45 | 1013.4 |
| 20260504184504 | 84 | 115 | 2.6 | 6.1 | 0.00 | 0.00 | 0.00 | 45 | 1013.2 |
| 20260504184004 | 83 | 113 | 1.7 | 6.1 | 0.00 | 0.00 | 0.00 | 47 | 1013.4 |
| 20260504183004 | 83 | 49 | 1.7 | 7.8 | 0.00 | 0.00 | 0.00 | 47 | 1014.4 |
| 20260504182504 | 84 | 112 | 1.7 | 7.8 | 0.00 | 0.00 | 0.00 | 47 | 1014.6 |
| 20260504181504 | 84 | 116 | 2.6 | 7.0 | 0.00 | 0.00 | 0.00 | 47 | 1015.1 |
| 20260504180504 | 85 | 53 | 3.5 | 6.1 | 0.00 | 0.00 | 0.00 | 47 | 1014.3 |
| 20260504180004 | 83 | 109 | 1.7 | 5.2 | 0.00 | 0.00 | 0.00 | 46 | 1014.1 |
| 20260504175504 | 83 | 143 | 2.6 | 6.1 | 0.00 | 0.00 | 0.00 | 46 | 1014.2 |
| 20260504175003 | 83 | 80 | 2.6 | 6.1 | 0.00 | 0.00 | 0.00 | 45 | 1014.6 |
| 20260504173004 | 82 | 110 | 1.7 | 7.0 | 0.00 | 0.00 | 0.00 | 47 | 1014.3 |
| 20260504172504 | 82 | 38 | 1.7 | 6.1 | 0.00 | 0.00 | 0.00 | 47 | 1014.4 |
| 20260504172004 | 82 | 126 | 4.3 | 7.0 | 0.00 | 0.00 | 0.00 | 48 | 1014.5 |
| 20260504171503 | 82 | 114 | 2.6 | 7.8 | 0.00 | 0.00 | 0.00 | 48 | 1014.4 |
| 20260504171004 | 81 | 69 | 3.5 | 7.0 | 0.00 | 0.00 | 0.00 | 49 | 1014.6 |
| 20260504170504 | 81 | 76 | 3.5 | 7.0 | 0.00 | 0.00 | 0.00 | 48 | 1014.6 |
| 20260504140504 | 75 | 94 | 4.3 | 8.7 | 0.00 | 0.00 | 0.00 | 64 | 1015.1 |
| 20260504130504 | 72 | 43 | 2.6 | 5.2 | 0.00 | 0.00 | 0.00 | 73 | 1014.8 |
| 20260504100504 | 63 | 87 | 0.0 | 1.7 | 0.00 | 0.00 | 0.00 | 87 | 1015.4 |
| 20260504082004 | 65 | 127 | 0.9 | 2.6 | 0.00 | 0.00 | 0.00 | 84 | 1015.4 |
| 20260504081004 | 65 | 10 | 0.9 | 4.3 | 0.00 | 0.00 | 0.00 | 83 | 1015.2 |
| 20260504080503 | 65 | 41 | 1.7 | 4.3 | 0.00 | 0.00 | 0.00 | 83 | 1015.2 |